TITAN 3C TRANSTAGE R/B, 3692

Orbit data source: Space-Track

TITAN 3C TRANSTAGE R/B, 3692 is space debris in GEO originally from a launch on Sun, 09 Feb 1969 UTC launched from the Air Force Eastern Test Range (AFETR). Debris objects in space refer to the collection of defunct objects orbiting the Earth. Examples of debris include non-operational satellites, rocket bodies, and fragments generated from explosions, collisions, or faulty payload assembly.

Not visible in the next 10 days
TITAN 3C TRANSTAGE R/B details
Identifier
3692, 1969-013B
Orbit
GEO
Last TLE update10 hours ago
Origin
Flag of USSAMSO (US)
ManufacturerMartin Marietta
MissionSpacecraft
Bus & MotorTRANSTAGE, Unknown motor
Mass2,028 kg wet, 2,028 kg dry
Launch date (UTC)
1969-02-09 (56 years ago)
Launch vehicleUnknown
Launch site
Air Force Eastern Test Range (AFETR)
Object type
Payload
Rocket body
Debris
Shape & HBRCyl + 2 Nozzle, 4.6 m
Radar Cross Section14.974 m², Large (>1 m²)

Expand to show TLE details & history

TLE from 10 hours ago
0 TITAN 3C TRANSTAGE R/B
1 03692U 69013B   25018.54802205 -.00000195  00000-0  00000-0 0  9997
2 03692   0.1561 335.2736 0169625 132.1061  35.8173  0.97536440 37305
Epoch: 2025-01-18T13:09Z
Definitive object data (Epoch: 2025-01-18T13:09:09.105Z)
Latitude0.04973°
Longitude-171.10204°
Altitude35,981.366 km
Speed3.089 km/s
True Right ascension09h 37m 31s
True Declination0° 02' 59"
Sunlit
Object was in daylight at TLE epoch
Visualization TLE readout
Latitude-0.1205°
Longitude-23.07741°
Altitude37,299.381 km
Speed2.995 km/s
Apparent Right ascension19h 04m 27s
Apparent Declination-5° 36' 35"
Sunlit
Object is in daylight
Visualization observer readout
Local Sidereal Time00:15:38
Azimuth257.82° W
Elevation5.66°
Doppler factor1
Orbital elements
Apogee altitude37,300.876 km
Perigee altitude35,843.782 km
Semi-major axis42,950.466 km
Eccentricity0.0169625
Inclination0.1561°
RAAN335.2736°
Arg. of periapsis132.1061°
True anomaly36.9746°
Mean anomaly35.8173°
Eccentric anomaly36.39395°
Mean motion0.24383 °/min
BSTARUnknown
Orbital period1476.42 mins
Loading historical data...
3692 neighbors
Authenticating...
Loading maneuver chart data...

TITAN 3C TRANSTAGE R/B Visibility forecast

Observer location: undefined°, undefined

TITAN 3C TRANSTAGE R/B is not visible in the next 10 days
Span
Click to sort rows by Start time (UTC) header in descending order
Start Az.
Max El. time (UTC)
Max El. Az.
Max El.
End time (UTC)
End Az.
|